Probability
1 2 2 3 3 4 6 6 5 3 1 1 2 1 0 0 0 0 0 0 0 0 0 0 0 0 0 0 0 0 0 0 0 1 2 3 4 5
0 1 1 2 3 4 5 5 5 4 2 1 1 1 0 0 0 0 0 0 0 0 0 0 0 0 0 0 0 0 0 0 0 0 1 2 3 4
0 0 0 1 2 3 4 4 4 4 3 1 1 0 0 0 0 0 0 0 0 0 0 0 0 0 0 0 0 0 0 0 0 0 0 1 2 2
0 0 0 0 1 2 3 3 4 5 4 2 1 1 1 0 0 0 0 0 0 0 0 0 0 0 0 0 0 0 0 0 0 0 0 0 1 1
0 0 0 0 0 1 1 2 3 4 4 3 3 2 2 1 0 0 0 1 1 0 0 0 0 0 0 0 0 0 0 0 0 0 0 0 0 0
0 0 0 0 0 0 0 1 2 3 3 3 3 3 3 2 0 0 0 1 1 1 1 0 0 0 0 0 0 0 0 0 0 0 0 0 0 0
0 0 0 0 0 0 0 0 1 2 2 2 2 2 2 1 0 0 0 0 1 2 2 1 0 0 0 0 0 0 0 0 0 0 0 0 0 0
0 0 0 0 0 0 0 0 0 1 1 1 1 1 1 0 0 0 0 0 0 1 2 1 0 0 0 0 0 0 0 0 0 0 0 0 0 0
0 0 0 0 0 0 0 0 0 0 0 0 0 0 0 0 0 0 0 0 0 0 1 1 0 0 0 0 0 0 0 0 0 0 0 0 0 0
0 0 0 0 0 0 0 0 0 0 0 0 0 0 0 0 0 0 0 0 0 0 0 0 0 0 0 0 0 0 0 0 0 0 0 0 0 0
0 0 0 0 0 0 0 0 0 0 0 0 0 0 0 0 0 0 0 0 0 0 0 0 0 0 0 0 0 0 0 0 0 0 0 0 0 0
0 0 0 0 0 0 0 0 0 0 0 0 0 0 0 0 0 0 0 0 0 0 0 0 0 0 0 0 0 0 0 0 0 0 0 0 0 0
0 0 0 0 0 0 0 0 0 0 0 0 0 0 0 0 0 0 0 0 0 0 0 0 0 0 0 0 0 0 0 0 0 0 0 0 0 0
0 0 0 0 0 0 0 0 0 0 0 0 0 0 0 0 0 0 0 0 0 0 0 0 0 0 0 0 0 0 0 0 0 0 0 0 0 0
0 0 0 0 0 0 0 0 0 0 0 0 0 0 0 0 0 0 0 0 0 0 0 0 0 0 0 0 0 0 0 0 0 0 0 0 0 0
0 0 0 0 0 0 0 0 0 0 0 0 0 0 0 0 0 0 0 0 0 0 0 0 0 0 0 0 0 0 0 0 0 0 0 0 0 0
0 0 0 0 0 0 0 0 0 0 0 0 0 0 0 0 0 0 0 0 0 0 0 0 0 0 0 0 0 0 0 0 0 0 0 0 0 0
0 0 0 0 0 0 0 0 0 0 0 0 0 0 0 0 0 0 0 0 0 0 0 0 0 0 0 0 0 0 0 0 0 0 0 0 0 0
0 0 0 0 0 0 0 0 0 0 0 0 0 0 0 0 0 0 0 0 0 0 0 0 0 0 0 0 0 0 0 0 0 0 0 0 0 0
0 0 0 0 0 0 0 0 0 0 0 0 0 0 0 0 0 0 0 0 0 0 0 0 0 0 0 0 0 0 0 0 0 0 0 0 0 0
0 0 0 0 0 0 0 0 0 0 0 0 0 0 0 0 0 0 0 0 0 0 0 0 0 0 0 0 0 0 0 0 0 0 0 0 0 0
0 0 0 0 0 0 0 0 0 0 0 0 0 0 0 0 0 0 0 0 0 0 0 0 0 0 0 0 0 0 0 0 0 0 0 0 0 0
0 0 0 0 0 0 0 0 0 0 0 0 0 0 0 0 0 0 0 0 0 0 0 0 0 0 0 0 0 0 0 0 0 0 0 0 0 0
Wind_Speed
10 11 10 9 8 8 8 9 10 12 12 11 8 7 7 7 9 10 12 13 15 18 19 19 20 20 21 21 22 22 23 22 22 22 22 22 21 21
7 10 10 8 8 8 8 9 9 11 13 10 9 8 7 7 9 11 12 13 14 16 17 18 19 19 20 20 21 22 22 22 22 22 21 22 21 22
9 10 11 10 9 8 8 8 9 10 14 12 9 9 10 10 9 9 10 11 10 14 16 17 18 19 19 20 20 21 20 20 20 20 20 21 20 20
9 9 10 8 11 9 8 10 9 9 11 15 10 8 10 10 10 10 9 8 10 12 14 16 17 18 18 19 19 19 19 19 19 19 19 20 20 20
8 9 9 9 10 9 10 10 9 8 10 12 12 9 8 7 9 9 10 9 9 10 12 14 16 17 18 18 18 18 18 18 18 18 18 19 19 19
8 8 9 9 10 10 9 10 9 10 10 11 11 9 8 7 6 8 9 8 8 7 10 11 12 14 16 17 17 17 17 18 18 18 18 18 18 18
7 7 8 8 10 9 8 9 9 9 9 9 10 9 8 6 6 6 9 8 9 6 7 7 7 8 9 12 15 17 18 18 18 18 18 18 18 18
6 6 7 7 8 10 11 12 12 11 11 10 10 11 11 9 7 7 8 8 9 5 5 8 6 8 8 8 12 14 17 18 18 18 18 18 17 17
5 6 5 5 7 9 10 11 11 12 13 12 13 13 11 9 8 9 9 9 11 6 5 9 6 9 7 8 12 14 16 17 17 18 18 17 17 16
5 6 6 7 7 8 9 10 9 9 10 10 12 12 11 10 9 10 11 10 9 6 5 8 7 7 7 7 11 15 16 16 16 17 17 17 16 16
5 5 6 7 9 9 9 10 10 9 8 10 13 14 15 13 10 7 6 6 9 8 4 6 6 6 7 7 8 12 14 15 16 16 16 16 15 14
4 4 5 8 10 10 8 9 11 10 9 9 10 11 11 10 9 7 7 7 7 7 4 4 5 4 6 5 5 5 7 11 14 15 16 15 14 9
5 5 5 9 11 12 11 9 11 11 9 9 8 8 7 6 6 6 5 6 7 8 5 4 5 5 6 7 6 4 4 5 6 8 12 14 14 11
5 5 6 11 12 13 10 10 12 10 7 7 7 7 7 6 6 6 6 6 7 9 7 6 6 6 6 7 7 4 3 4 4 5 4 8 10 11
5 8 11 12 12 9 10 11 9 6 6 6 7 7 7 7 6 6 6 6 6 6 6 6 6 6 6 7 6 5 4 3 3 4 4 4 4 5
5 7 10 10 9 8 7 7 5 5 6 6 7 7 7 6 6 6 6 6 6 6 5 5 6 6 6 6 5 6 5 3 3 3 3 2 2 3
6 5 5 5 5 5 5 5 5 5 5 6 6 7 7 7 7 6 6 6 6 7 7 5 4 4 5 5 5 5 4 4 3 2 2 2 3 3
5 4 5 5 5 6 6 6 5 5 6 6 6 6 7 7 7 6 6 6 7 6 6 6 5 4 3 2 3 4 4 4 2 2 2 3 3 2
3 4 4 5 5 6 6 6 6 6 6 6 6 6 6 6 7 7 6 6 7 7 6 5 5 5 6 7 4 2 3 3 2 2 2 2 3 3
3 4 5 5 6 6 6 6 7 6 6 6 6 6 6 6 6 7 7 8 7 7 7 6 5 5 6 6 5 4 3 2 2 3 2 1 1 1
4 4 5 5 6 6 6 6 7 6 7 7 6 7 6 6 6 7 7 9 8 7 7 7 6 5 4 2 3 3 3 2 1 2 2 1 0 1
5 5 5 5 6 6 6 6 6 6 7 6 7 6 6 6 7 8 7 7 7 7 8 6 5 4 3 3 4 3 2 2 3 3 2 2 2 3
5 5 5 6 6 6 6 6 7 7 6 7 7 7 7 7 6 6 7 7 6 6 6 5 5 4 4 3 2 2 1 1 1 2 3 5 4 2
Wind_Direction
246 247 248 249 247 248 249 249 260 274 275 272 268 248 242 249 250 253 256 252 242 242 243 245 246 247 247 247 248 249 249 248 248 247 248 248 246 245
247 250 251 252 251 247 246 247 247 259 271 273 273 268 251 248 249 255 258 256 248 245 244 244 245 245 245 245 247 248 247 246 247 247 248 248 246 246
252 252 254 255 254 252 249 249 250 252 265 273 272 272 265 261 260 257 258 259 258 245 244 245 246 245 244 244 244 244 243 244 245 246 246 245 244 244
262 262 261 260 258 257 254 253 253 252 260 272 274 272 267 266 265 263 259 256 258 255 246 245 245 245 244 243 241 240 240 241 242 242 243 241 241 242
268 268 270 270 267 265 264 262 260 259 257 266 272 271 270 267 269 268 266 261 261 259 254 249 246 245 244 242 240 239 239 239 239 238 238 239 239 239
274 273 274 273 274 277 273 270 269 267 263 264 268 270 267 269 266 268 271 264 264 264 259 254 249 246 244 243 241 239 239 239 240 239 237 236 235 236
281 281 280 282 282 280 279 280 279 273 270 267 269 272 269 268 262 266 268 274 270 257 261 259 254 253 248 244 240 238 238 239 239 239 237 234 233 233
290 292 290 286 290 285 280 278 274 273 274 271 269 267 271 270 271 266 267 273 275 251 253 266 255 255 254 250 244 238 236 237 238 237 236 233 231 229
292 295 296 303 302 300 295 286 276 270 266 269 272 272 277 278 277 271 263 261 265 268 265 270 261 261 261 255 245 241 239 237 236 235 234 231 228 226
293 295 298 303 309 310 303 296 289 285 280 273 274 279 283 285 277 273 274 274 278 272 245 266 268 266 269 261 248 242 241 239 236 234 233 231 227 224
299 302 303 305 317 318 307 301 299 296 293 285 284 284 286 284 280 279 275 273 277 276 251 255 270 277 274 268 256 243 240 238 236 234 232 229 225 221
309 306 306 311 318 320 307 302 299 303 308 307 298 294 292 292 283 268 262 261 272 274 264 255 273 280 277 270 265 256 246 241 237 235 232 227 220 216
310 312 315 322 319 315 309 300 300 307 305 300 299 300 300 298 296 288 275 264 266 268 269 267 274 275 268 280 281 265 251 254 246 239 231 223 215 207
308 313 317 323 320 317 313 311 310 309 303 299 297 299 301 301 303 302 294 282 272 270 270 266 268 268 270 276 279 274 258 251 246 241 231 215 213 210
313 317 318 320 318 316 318 317 312 307 305 303 301 301 304 303 305 306 305 297 292 289 280 273 269 269 264 268 273 275 271 256 237 234 228 217 213 201
317 317 317 316 312 311 315 319 315 312 306 301 303 306 311 311 309 311 309 309 306 307 312 302 286 271 268 271 265 270 268 247 229 230 226 223 215 209
317 313 316 320 324 325 322 320 317 316 311 307 306 309 311 312 314 317 311 309 300 300 309 318 315 301 290 275 265 266 268 270 245 220 209 227 229 216
324 314 316 318 318 317 316 316 315 313 311 309 307 307 309 311 312 314 312 306 299 296 297 303 312 308 297 296 294 266 270 277 270 236 214 219 234 226
324 312 309 310 309 309 309 309 309 311 312 307 306 307 308 307 307 307 307 304 299 295 292 294 293 289 284 283 299 305 270 268 262 252 239 240 239 233
309 302 301 303 304 305 306 306 306 309 310 307 306 305 304 303 304 305 303 301 299 298 295 291 289 285 277 277 283 297 296 257 248 245 258 311 302 254
303 299 298 300 302 303 303 303 304 305 308 308 304 304 304 302 301 300 300 298 297 294 290 289 293 296 297 301 289 294 321 341 293 247 219 191 220 220
295 295 295 296 298 298 297 298 300 301 304 302 302 304 304 301 299 299 299 298 297 297 296 295 299 298 288 274 274 280 309 358 35 41 17 323 224 213
292 293 293 294 292 292 292 293 294 296 297 297 299 301 302 300 297 295 296 296 296 297 300 300 304 305 298 281 267 262 267 333 27 39 25 21 18 22